Tracking 28792 objects as of 24-Apr-2024
HD Live streaming from Space Station
objects crossing your sky now

COSMOS 2491 DEB

Track COSMOS 2491 DEB now!
10-day predictions


NORAD ID: 57550
Int'l Code: 2013-076AM
Perigee: 1,252.6 km
Apogee: 1,538.7 km
Inclination: 82.5 °
Period: 113.5 minutes
Semi major axis: 7766 km
RCS: Unknown
Launch date: December 25, 2013
Source: Commonwealth of Independent States (former USSR) (CIS)
Launch site: PLESETSK MISSILE AND SPACE COMPLEX (PKMTR)

Note: This is SATELLITE DEBRIS
Your satellite tracking list
Your tracking list is empty




NASA's NSSDC Master Catalog

Two Line Element Set (TLE):
1 57550U 13076AM  24103.72660851  .00004499  00000-0  21605-1 0  9995
2 57550  82.4681 262.9642 0184226 154.9617 206.0553 12.68389645 42942
Source of the keplerian elements: AFSPC